Weather History for KMRY - June, 2013

Change the Weather History Date:

Thursday, June 20, 2013

  Actual Average Record
Temperature  
Mean Temperature 58 °F 60 °F  
Max Temperature 65 °F 67 °F 91 °F (2008)
Min Temperature 50 °F 52 °F 47 °F (2006)
Degree Days  
Heating Degree Days 7    
Month to date heating degree days 112  
Since 1 June heating degree days 112  
Since 1 July heating degree days 3258  
Cooling Degree Days 0    
Month to date cooling degree days 0  
Year to date cooling degree days 7  
Since 1 June cooling degree days 0  
Growing Degree Days 7 (Base 50)    
Moisture  
Dew Point 47 °F    
Average Humidity 68    
Maximum Humidity 83    
Minimum Humidity 52    
Precipitation  
Precipitation 0.00 in - 0.00 in (2015)
Month to date precipitation 0.00  
Year to date precipitation 3.11  
Since 1 July precipitation 11.35  
Sea Level Pressure  
Sea Level Pressure 30.06 in    
Wind  
Wind Speed 8 mph (SW)    
Max Wind Speed 21 mph    
Max Gust Speed 25 mph    
Visibility 10 miles    
Events      
T = Trace of Precipitation, MM = Missing Value Source: NWS Daily Summary

Daily Weather History Graph

Daily Weather History Graph

Search for Another Location

Airport or City:

Trip Planner

Search our weather history database for the weather conditions in past years. The results will help you decide how hot, cold, wet, or windy it might be!

Date:

Astronomy

Jun. 20, 2013 Rise Set
Actual Time 5:49 AM PDT 8:28 PM PDT
Civil Twilight 5:18 AM PDT 8:59 PM PDT
Nautical Twilight 4:40 AM PDT 9:37 PM PDT
Astronomical Twilight 3:57 AM PDT 10:20 PM PDT
Moon 5:40 PM PDT (6/20) 3:16 AM PDT (6/20)
Length of Visible Light 15h 41m
Length of Day
14h 39m
Waxing Gibbous, 89% of the Moon is Illuminated
Jun 20
Waxing Gibbous
Jun 23
Full
Jun 29
Last Quarter
Jul 8
New
Jul 15
First Quarter

Hourly Weather History & Observations

Time (PDT) Temp. Dew Point Humidity Pressure Visibility Wind Dir Wind Speed Gust Speed Precip Events Conditions
12:54 AM 53.1 °F 46.9 °F 80% 30.08 in 10.0 mi South 5.8 mph - N/A   Clear
1:54 AM 53.1 °F 46.9 °F 80% 30.07 in 10.0 mi South 4.6 mph - N/A   Clear
2:54 AM 52.0 °F 46.9 °F 83% 30.06 in 10.0 mi South 6.9 mph - N/A   Clear
3:54 AM 52.0 °F 46.0 °F 80% 30.05 in 10.0 mi SSE 4.6 mph - N/A   Clear
4:54 AM 51.1 °F 46.0 °F 83% 30.04 in 10.0 mi South 6.9 mph - N/A   Clear
5:54 AM 50.0 °F 44.1 °F 80% 30.04 in 10.0 mi ESE 3.5 mph - N/A   Clear
6:54 AM 53.1 °F 48.0 °F 83% 30.04 in 10.0 mi Calm Calm - N/A   Clear
7:54 AM 55.9 °F 46.9 °F 72% 30.05 in 10.0 mi WSW 4.6 mph - N/A   Clear
8:54 AM 57.9 °F 48.9 °F 72% 30.06 in 10.0 mi Variable 4.6 mph - N/A   Clear
9:54 AM 57.9 °F 48.9 °F 72% 30.05 in 10.0 mi WNW 8.1 mph - N/A   Clear
10:54 AM 57.9 °F 48.9 °F 72% 30.05 in 10.0 mi WNW 10.4 mph - N/A   Clear
11:54 AM 60.1 °F 48.9 °F 67% 30.06 in 10.0 mi WNW 13.8 mph - N/A   Clear
12:54 PM 61.0 °F 48.9 °F 64% 30.06 in 10.0 mi West 13.8 mph - N/A   Clear
1:54 PM 63.0 °F 48.9 °F 60% 30.05 in 10.0 mi West 11.5 mph - N/A   Clear
2:54 PM 64.0 °F 48.0 °F 56% 30.06 in 10.0 mi West 10.4 mph - N/A   Clear
3:54 PM 64.0 °F 48.0 °F 56% 30.06 in 10.0 mi WSW 13.8 mph - N/A   Clear
4:54 PM 64.9 °F 46.0 °F 50% 30.07 in 10.0 mi SW 13.8 mph 20.7 mph N/A   Clear
5:54 PM 63.0 °F 46.9 °F 56% 30.06 in 10.0 mi WSW 12.7 mph 19.6 mph N/A   Clear
6:54 PM 61.0 °F 46.9 °F 60% 30.06 in 10.0 mi Variable 5.8 mph 16.1 mph N/A   Clear
7:54 PM 59.0 °F 48.0 °F 67% 30.06 in 10.0 mi West 12.7 mph - N/A   Clear
8:54 PM 57.0 °F 48.0 °F 72% 30.08 in 10.0 mi SW 10.4 mph - N/A   Clear
9:54 PM 57.0 °F 46.9 °F 69% 30.09 in 10.0 mi SW 6.9 mph - N/A   Clear
10:54 PM 55.9 °F 48.0 °F 75% 30.09 in 10.0 mi South 6.9 mph - N/A   Clear
11:54 PM 55.0 °F 48.0 °F 77% 30.07 in 10.0 mi SSW 6.9 mph - N/A   Clear